Wakefield, VA

8:11 PM EST on December 09, 2019 (GMT -0500)
Wakefield Municipal

Weather History for KAKQ - October, 2019

Change the Weather History Date:

Tuesday, October 15, 2019

  Actual Average (KJGG) Record (KJGG)
Temperature  
Mean Temperature 60 °F -  
Max Temperature 75 °F 75 °F 88 °F (1985)
Min Temperature 45 °F 48 °F 34 °F (1979)
Degree Days  
Heating Degree Days 5    
Growing Degree Days 10 (Base 50)    
Moisture  
Dew Point 50 °F    
Average Humidity 72    
Maximum Humidity 97    
Minimum Humidity 32    
Precipitation  
Precipitation 0.00 in - - ()
Sea Level Pressure  
Sea Level Pressure 30.09 in    
Wind  
Wind Speed 2 mph (East)    
Max Wind Speed 7 mph    
Max Gust Speed -    
Visibility 8 miles    
Events      
Averages and records for this station are not official NWS values.
T = Trace of Precipitation, MM = Missing Value Source: NWS Daily Summary

Daily Weather History Graph

Daily Weather History Graph

Search for Another Location

Airport or City:

Astronomy

Oct. 15, 2019 Rise Set
Actual Time 7:15 AM EDT 6:31 PM EDT
Civil Twilight 6:49 AM EDT 6:57 PM EDT
Nautical Twilight 6:19 AM EDT 7:27 PM EDT
Astronomical Twilight 5:49 AM EDT 7:57 PM EDT
Moon 7:52 PM EDT (10/15) 8:42 AM EDT (10/15)
Length of Visible Light 12h 08m
Length of Day
11h 16m
Full, 97% of the Moon is Illuminated
Oct 15
Full
Oct 21
Last Quarter
Oct 27
New
Nov 4
First Quarter
Nov 12
Full

Hourly Weather History & Observations

Time (EDT) Temp. Dew Point Humidity Pressure Visibility Wind Dir Wind Speed Gust Speed Precip Events Conditions
12:22 AM 53.1 °F 50.0 °F 89% 30.07 in 2.5 mi Calm Calm - N/A   Clear
12:31 AM 52.0 °F 50.0 °F 93% 30.08 in 5.0 mi Calm Calm - N/A   Clear
12:54 AM 52.0 °F 48.9 °F 89% 30.08 in 9.0 mi Calm Calm - N/A   Clear
1:54 AM 50.0 °F 48.0 °F 93% 30.09 in 5.0 mi Calm Calm - N/A   Clear
2:33 AM 48.9 °F 48.0 °F 97% 30.09 in 1.8 mi Calm Calm - N/A   Clear
2:54 AM 48.9 °F 46.0 °F 90% 30.10 in 4.0 mi Calm Calm - N/A   Clear
3:54 AM 48.0 °F 45.0 °F 89% 30.09 in 7.0 mi Calm Calm - N/A   Clear
6:55 AM 45.0 °F 42.1 °F 90% 30.13 in 6.0 mi Calm Calm - N/A   Clear
7:54 AM 48.0 °F 45.0 °F 89% 30.14 in 10.0 mi Calm Calm - N/A   Clear
8:54 AM 57.9 °F 53.1 °F 84% 30.16 in 10.0 mi Calm Calm - N/A   Clear
9:54 AM 66.0 °F 55.9 °F 70% 30.17 in 10.0 mi Variable 3.5 mph - N/A   Clear
10:54 AM 70.0 °F 51.1 °F 51% 30.16 in 10.0 mi East 5.8 mph - N/A   Clear
11:54 AM 72.0 °F 46.0 °F 40% 30.15 in 10.0 mi East 6.9 mph - N/A   Clear
12:54 PM 73.9 °F 46.9 °F 38% 30.14 in 10.0 mi NNE 4.6 mph - N/A   Clear
1:54 PM 75.0 °F 45.0 °F 34% 30.11 in 10.0 mi East 6.9 mph - N/A   Clear
2:54 PM 75.9 °F 44.1 °F 32% 30.10 in 10.0 mi East 5.8 mph - N/A   Clear
3:54 PM 75.0 °F 44.1 °F 33% 30.06 in 10.0 mi East 5.8 mph - N/A   Clear
4:54 PM 73.9 °F 48.9 °F 41% 30.06 in 10.0 mi East 6.9 mph - N/A   Clear
5:54 PM 70.0 °F 52.0 °F 53% 30.06 in 10.0 mi East 5.8 mph - N/A   Clear
6:54 PM 63.0 °F 53.1 °F 70% 30.06 in 10.0 mi Calm Calm - N/A   Clear
7:54 PM 62.1 °F 55.0 °F 78% 30.06 in 10.0 mi East 4.6 mph - N/A   Clear
8:54 PM 62.1 °F 55.9 °F 80% 30.04 in 10.0 mi East 3.5 mph - N/A   Clear
9:54 PM 61.0 °F 57.9 °F 90% 30.04 in 10.0 mi Calm Calm - N/A   Clear
10:54 PM 60.1 °F 57.0 °F 90% 30.04 in 8.0 mi Calm Calm - N/A   Clear
11:54 PM 60.1 °F 57.9 °F 93% 30.02 in 5.0 mi Calm Calm - N/A   Clear